Temperature
13 13 12 11 11 12 12 12 12 12 11 11 12 13 13 14 14 15 15 16 17 18 19 19 20 20 20 20 20 19 18 18 18 17 17 17 17 17 17 17 16 16 16 15
12 12 12 11 10 11 11 12 12 12 11 11 12 13 13 13 14 14 14 15 16 17 18 18 19 19 20 20 19 18 18 17 17 16 17 17 17 17 16 16 16 16 16 15
11 12 12 10 9 9 10 10 10 10 10 11 11 12 12 13 13 14 14 15 16 16 16 16 17 17 18 18 18 17 17 16 16 16 16 16 16 16 16 16 15 15 15 15
10 11 10 9 9 9 10 10 10 10 10 11 11 11 13 13 13 14 15 15 15 15 15 15 15 15 16 16 16 15 15 15 15 15 15 15 15 15 15 15 15 15 15 15
9 10 10 10 10 9 9 10 9 9 10 10 10 12 13 14 13 14 15 15 15 15 15 15 15 15 15 15 15 14 14 14 14 14 15 15 15 15 14 14 14 14 14 14
9 9 9 9 10 10 9 10 10 9 10 10 10 10 11 13 14 14 15 15 15 15 15 15 14 14 14 14 13 13 13 13 13 13 13 13 14 13 13 13 13 13 13 14
8 9 9 10 11 10 10 9 10 9 10 10 9 10 11 13 14 15 15 15 15 15 14 14 14 14 13 13 13 13 12 12 12 12 12 12 12 12 12 12 12 12 12 13
8 8 9 11 10 9 9 10 10 10 11 11 11 12 13 14 15 15 15 15 15 15 14 14 14 14 13 13 13 13 12 12 12 12 11 11 12 12 12 12 12 12 12 12
9 9 11 11 11 11 11 11 11 11 11 11 12 12 13 14 15 15 16 15 15 15 15 14 14 14 14 13 13 13 13 12 12 11 11 11 11 11 11 11 12 12 12 12
9 10 11 11 12 12 11 11 12 12 12 12 12 13 14 14 15 16 16 16 15 15 15 15 14 14 14 14 13 13 13 12 12 11 11 11 11 11 11 11 11 11 11 11
9 11 11 12 12 12 12 12 12 12 12 12 12 13 14 14 15 15 16 16 16 16 15 15 15 14 14 14 13 13 13 12 12 12 11 11 11 11 11 11 11 11 11 11
9 11 11 12 12 12 12 12 12 12 12 12 12 13 14 14 15 15 16 16 16 16 16 15 15 15 14 14 13 13 13 12 12 12 11 11 11 11 11 11 10 10 10 10
13 12 12 12 12 12 12 12 12 12 12 12 12 13 13 14 15 15 15 16 16 16 16 16 15 15 15 14 13 13 13 12 12 12 11 11 11 11 11 10 10 10 10 10
13 13 12 12 12 12 12 12 12 12 12 12 12 13 13 14 15 15 16 16 16 16 16 16 16 15 15 14 14 13 13 12 12 12 11 11 11 11 11 10 10 9 9 10
13 13 12 12 12 12 12 12 12 12 12 12 12 13 13 14 15 16 16 16 16 16 16 16 16 16 15 15 14 13 13 12 12 12 11 11 11 11 10 10 10 9 9 10
13 13 12 12 12 12 12 12 12 12 12 12 12 13 13 14 15 16 16 16 17 17 17 16 16 16 16 15 14 14 13 12 12 12 11 11 11 11 11 10 10 10 10 10
13 12 12 12 12 12 11 11 11 12 12 12 12 12 13 15 16 17 17 17 17 17 17 17 16 16 16 15 15 14 13 12 12 11 11 11 11 11 11 10 10 10 10 10
13 13 12 12 12 11 11 11 11 12 12 12 12 12 13 14 15 16 17 17 17 17 17 17 17 16 16 16 15 14 13 12 12 11 11 11 11 11 11 10 10 10 10 10
13 12 12 12 11 11 11 11 11 11 12 12 12 12 13 13 14 15 16 17 17 18 17 17 17 16 16 15 15 14 13 12 12 11 11 11 11 11 11 10 10 10 10 10
13 12 12 12 11 11 11 11 11 11 12 12 12 12 13 13 14 15 16 16 17 17 17 17 17 16 16 15 15 14 13 12 12 11 11 11 11 11 10 10 10 10 10 9
13 12 12 11 11 11 11 11 11 11 11 11 12 12 12 13 13 14 15 16 16 17 17 17 17 16 16 15 15 14 13 12 12 11 11 11 11 11 11 10 10 10 9 9
13 12 12 11 11 11 11 11 11 11 11 11 12 12 12 13 13 13 14 15 15 16 17 17 17 16 16 15 15 14 13 12 12 11 11 11 11 11 11 10 10 10 9 9
13 12 12 11 11 12 11 11 11 11 11 11 11 11 12 12 12 13 14 14 15 16 16 17 17 17 16 15 15 14 13 12 12 11 11 11 11 11 11 10 10 10 9 9
13 12 12 12 11 11 11 11 11 11 11 11 11 11 11 12 12 12 13 13 14 15 16 17 17 17 16 16 15 14 14 13 12 11 11 11 11 11 11 10 10 10 9 9
12 12 12 12 12 12 11 11 11 11 11 11 11 11 11 11 11 12 12 13 14 15 15 16 16 17 16 16 15 14 14 13 12 12 11 11 11 11 10 10 10 10 9 9
12 12 12 12 12 12 11 11 11 12 11 12 12 11 11 11 11 11 12 13 13 14 15 15 16 16 16 16 15 14 14 13 12 12 11 11 11 10 10 10 10 10 9 9
12 12 12 12 12 12 11 11 11 11 11 11 12 12 11 11 11 11 12 12 13 13 14 14 15 15 15 15 15 14 14 13 12 12 11 11 10 10 10 10 10 10 9 9
Wind_Speed
3 9 12 14 17 17 14 9 7 7 8 16 18 17 16 14 13 14 13 11 9 7 6 6 6 5 3 2 3 6 7 6 3 4 4 5 5 5 6 6 7 7 6 6
4 10 14 16 20 18 13 12 10 9 9 15 17 15 17 18 17 16 14 14 14 14 14 12 11 10 10 7 5 6 6 4 1 1 2 2 4 4 4 5 5 5 6 7
3 1 5 11 13 11 8 11 9 9 10 17 19 19 15 16 16 14 13 13 13 13 12 12 11 12 12 12 12 11 10 7 6 4 5 5 3 2 2 3 3 5 6 6
3 5 6 3 5 6 6 9 11 9 12 15 18 16 8 10 14 13 10 10 10 9 10 9 9 10 10 11 11 11 9 8 7 7 6 6 6 5 4 2 2 3 5 6
4 4 2 3 4 4 4 3 10 12 14 16 18 11 6 13 17 11 6 6 6 6 7 8 8 8 9 9 8 8 7 7 6 6 6 6 6 5 4 3 2 1 2 3
5 4 2 4 7 3 2 1 8 11 13 15 15 10 10 18 18 12 6 4 6 6 7 7 7 7 8 7 7 7 5 5 5 5 5 6 6 4 4 3 3 2 3 2
5 3 1 5 6 4 2 5 10 8 10 10 7 6 13 18 15 9 3 3 6 6 5 4 4 7 7 6 5 4 4 5 5 6 5 6 5 4 4 4 4 5 5 5
3 3 3 4 2 2 3 5 6 8 8 9 10 13 14 15 14 9 3 2 4 4 3 2 3 4 5 5 4 3 4 5 5 6 6 6 7 7 6 6 7 7 6 6
3 4 4 2 3 5 5 5 6 6 9 9 10 11 13 13 13 8 3 1 1 2 1 3 3 2 4 5 3 2 4 3 3 5 6 6 7 7 6 6 6 6 6 5
2 1 3 4 4 4 5 6 8 8 9 8 8 11 13 12 11 8 4 2 1 1 1 3 4 2 2 4 3 4 4 2 1 2 4 5 6 5 5 6 5 5 6 5
2 2 2 4 5 5 6 7 7 8 6 7 8 9 8 9 10 8 5 4 2 2 2 3 3 2 2 3 4 4 3 1 0 1 2 3 4 5 5 4 4 4 4 4
5 6 5 5 6 4 4 6 6 6 7 8 7 8 8 9 8 8 7 5 4 3 3 2 2 3 3 0 3 4 2 0 1 1 0 1 2 2 5 4 5 6 6 4
7 7 7 5 3 3 3 5 6 6 7 8 8 7 8 7 7 8 8 6 5 6 6 4 3 5 5 2 3 4 3 1 0 1 1 0 1 1 0 2 3 4 6 7
7 6 3 2 2 2 3 5 6 7 7 7 7 7 8 7 8 9 9 9 7 7 7 6 5 6 6 4 3 4 3 2 1 1 1 1 1 1 1 1 2 3 5 6
8 7 6 3 1 2 2 4 5 7 8 8 7 8 9 9 10 10 10 9 7 5 6 6 6 6 5 5 6 6 4 2 1 1 1 2 2 2 2 3 2 3 4 5
8 8 7 4 2 2 2 3 4 7 7 7 7 9 9 9 9 9 9 9 7 7 7 7 7 6 6 7 7 5 3 4 3 2 2 2 2 3 3 3 3 3 4 4
11 8 6 3 1 2 2 3 4 5 6 7 8 9 9 9 9 10 11 11 9 8 7 6 6 5 7 8 7 5 4 3 3 3 3 2 2 3 3 3 3 3 3 4
11 10 9 7 5 3 4 4 5 6 6 7 8 8 9 10 10 11 11 11 10 9 7 6 4 5 7 7 6 5 5 4 2 3 2 2 3 3 4 3 3 3 2 4
10 10 9 7 5 4 3 4 5 6 7 6 6 7 8 8 9 10 9 9 9 10 10 9 4 6 7 7 7 5 6 5 3 3 2 3 4 3 4 3 3 2 3 3
10 9 8 7 5 4 4 5 6 6 6 5 6 7 8 9 10 10 9 7 6 6 10 8 2 5 6 7 8 5 6 6 5 4 3 3 4 3 3 3 3 3 3 3
11 9 8 7 5 5 4 4 4 5 5 5 5 7 8 9 9 8 7 7 8 10 10 8 2 3 5 6 7 6 6 5 5 4 4 4 4 4 4 3 3 3 3 3
10 9 8 7 6 5 4 3 3 4 4 5 6 6 7 8 9 8 7 5 8 12 8 5 3 3 6 8 5 6 6 6 5 4 4 5 5 5 4 4 4 3 3 4
9 8 8 7 7 5 4 3 2 3 3 4 6 6 6 7 6 6 8 8 8 12 8 5 6 5 9 7 6 6 6 6 5 5 5 5 5 5 5 5 4 4 4 4
9 8 8 7 6 5 4 4 4 3 4 5 5 6 5 6 6 5 6 11 13 13 7 8 9 5 10 6 6 6 6 6 5 5 5 5 5 5 5 5 4 4 4 5
10 9 8 7 6 6 6 5 4 4 4 4 6 7 6 4 5 7 8 10 12 11 7 8 7 5 7 5 6 6 6 6 6 6 6 6 6 6 6 5 5 5 5 5
9 8 7 8 7 6 6 5 4 4 3 4 5 5 6 6 7 7 7 8 10 10 7 5 4 3 4 5 5 6 6 7 7 6 6 6 7 6 6 6 7 5 5 5
8 7 5 5 5 6 6 5 5 5 5 5 5 5 6 6 6 7 8 7 7 7 7 5 4 3 4 5 5 5 6 6 7 6 7 6 6 6 7 7 6 6 5 5
Wind_Direction
50 82 71 46 25 29 46 56 74 69 39 2 349 347 358 8 16 21 21 22 21 16 13 11 4 353 329 240 184 154 141 142 176 231 235 235 235 232 228 220 221 220 220 228
63 88 75 47 23 19 31 37 44 45 25 350 346 353 12 17 20 24 24 27 30 36 42 41 38 38 41 47 73 105 111 113 110 325 303 263 248 239 235 233 235 228 225 224
16 50 58 33 5 2 23 38 28 28 356 344 351 350 359 11 13 19 24 26 30 36 41 41 40 47 51 53 62 70 71 63 56 46 36 21 14 6 290 262 247 237 234 225
43 45 56 319 293 328 351 50 31 11 354 352 344 326 320 7 3 1 10 25 32 39 48 48 50 54 58 58 62 65 63 57 48 44 37 27 27 21 359 326 271 245 240 231
62 78 90 331 337 342 339 22 19 358 349 349 344 337 336 352 352 344 356 27 40 46 56 54 50 53 61 58 59 61 56 50 42 43 38 28 19 3 352 350 344 308 268 237
56 76 52 309 314 316 231 5 4 349 341 342 352 8 334 329 332 332 352 41 53 51 53 52 44 52 56 50 51 51 49 45 37 36 33 20 6 355 350 357 359 2 11 5
58 79 324 276 308 346 29 316 317 317 317 324 331 284 292 311 321 323 336 63 69 62 53 42 44 54 46 31 20 16 41 45 34 22 16 12 6 4 6 17 27 33 38 31
57 53 297 304 25 38 258 265 278 290 296 300 301 303 313 322 327 327 326 70 76 68 40 4 34 52 34 4 332 7 53 53 37 23 20 22 29 28 28 34 40 33 35 30
172 203 236 202 211 238 235 263 276 280 290 298 306 311 320 324 329 327 303 252 99 91 347 335 349 28 12 334 340 67 73 66 44 37 36 34 40 38 34 32 39 31 31 26
108 197 197 215 254 268 261 259 272 280 286 294 300 308 319 327 337 339 323 299 302 139 293 314 319 318 325 340 27 104 109 114 64 60 51 42 39 37 42 31 26 27 24 13
161 210 220 280 292 289 292 296 297 300 296 297 304 313 319 328 335 336 322 302 279 205 234 293 301 284 316 20 64 102 131 152 81 67 80 66 54 40 39 39 27 21 8 356
199 210 192 250 273 292 311 318 318 323 326 325 324 323 327 330 333 335 329 314 290 263 255 271 265 251 266 18 99 113 132 205 322 341 49 122 112 64 41 37 32 33 23 9
177 192 193 229 271 315 333 336 336 336 331 329 330 330 333 330 328 331 329 322 288 264 255 250 236 234 238 219 117 117 135 149 67 5 358 225 200 195 315 358 3 16 15 15
174 162 173 208 260 327 354 346 345 343 334 329 328 330 334 333 329 332 327 316 296 270 257 246 235 235 227 195 141 135 142 132 116 41 19 25 87 163 169 86 18 346 340 348
179 168 174 177 95 24 7 356 356 344 336 334 333 338 341 340 333 326 321 321 319 294 265 250 240 239 209 172 150 150 154 151 91 49 60 75 88 88 80 76 58 10 354 352
167 146 136 116 57 348 351 357 345 331 330 330 335 337 335 329 322 321 327 334 332 308 279 258 246 234 186 166 154 153 167 171 133 88 77 92 101 101 93 86 70 44 24 2
149 153 151 159 238 278 295 304 306 311 318 324 325 328 333 336 340 342 340 335 323 302 284 262 251 222 178 168 160 162 164 160 127 99 93 109 119 126 124 115 99 65 20 7
163 167 171 179 200 237 281 302 307 312 310 309 320 334 340 343 339 334 330 330 336 337 325 300 262 193 173 166 159 157 156 156 147 136 120 111 118 129 133 129 118 89 36 34
157 163 174 187 198 207 236 273 291 300 306 317 331 333 328 328 326 324 328 341 354 347 328 319 275 177 169 168 152 147 154 156 149 141 125 114 112 123 135 138 129 108 85 67
161 166 177 194 200 203 241 273 289 302 308 317 330 335 334 331 331 331 334 337 332 318 314 318 257 172 171 165 149 143 150 155 155 149 135 126 130 134 137 140 136 125 110 98
166 172 186 199 209 224 249 274 288 298 305 317 328 325 322 321 327 333 337 336 328 333 338 345 357 185 176 162 148 141 145 150 153 155 152 148 145 143 141 138 136 134 131 121
169 179 196 202 205 224 251 268 278 286 300 315 321 325 329 329 331 331 321 296 306 325 333 325 318 226 187 162 147 147 149 152 152 151 153 154 155 156 156 152 146 140 136 134
172 182 197 203 205 214 241 264 262 263 281 295 306 315 319 314 313 321 324 314 316 319 320 297 295 260 182 161 156 155 157 157 159 161 164 163 164 164 162 159 154 146 139 132
174 184 198 202 195 197 224 245 248 257 268 279 286 297 306 313 315 304 294 306 315 317 310 298 298 231 173 165 162 162 165 166 165 166 164 160 161 161 160 158 153 148 142 136
177 184 190 188 194 210 222 230 247 271 284 287 294 299 297 283 285 302 310 314 321 326 321 314 308 203 174 170 171 171 174 177 172 165 164 162 163 162 162 160 157 150 144 141
178 185 192 197 200 204 205 206 220 244 250 268 286 291 297 302 304 308 312 319 325 332 330 316 304 209 188 186 185 183 180 178 173 169 169 168 168 164 163 164 160 156 151 148
181 185 190 206 216 209 202 202 214 228 224 228 258 278 291 303 311 316 319 323 330 332 329 317 292 248 219 204 197 190 182 175 172 170 169 169 169 170 170 166 163 157 152 152
Height
1524 1523 1525 1527 1524 1516 1514 1514 1520 1524 1525 1524 1517 1511 1503 1496 1491 1487 1485 1483 1480 1478 1477 1477 1477 1477 1478 1479 1481 1483 1486 1488 1490 1490 1492 1493 1493 1493 1493 1494 1494 1494 1494 1494
1528 1527 1527 1530 1531 1527 1524 1525 1526 1525 1528 1525 1519 1512 1505 1500 1496 1492 1490 1487 1484 1482 1480 1480 1479 1478 1478 1479 1480 1482 1484 1486 1487 1488 1490 1490 1490 1490 1490 1491 1491 1491 1491 1491
1535 1529 1528 1539 1544 1540 1537 1536 1534 1535 1536 1527 1520 1514 1511 1507 1502 1499 1496 1492 1489 1487 1486 1485 1484 1482 1481 1481 1481 1482 1483 1485 1486 1487 1486 1486 1486 1487 1487 1487 1487 1488 1488 1488
1538 1537 1547 1554 1546 1545 1541 1539 1539 1538 1535 1530 1525 1517 1513 1511 1507 1504 1501 1498 1496 1494 1492 1491 1489 1487 1485 1485 1484 1484 1484 1484 1484 1484 1484 1483 1483 1483 1483 1483 1483 1484 1484 1484
1544 1546 1550 1549 1545 1545 1544 1541 1541 1538 1534 1530 1525 1517 1513 1511 1509 1507 1506 1503 1501 1499 1497 1495 1493 1491 1489 1488 1487 1486 1485 1485 1484 1483 1481 1480 1480 1479 1479 1478 1479 1479 1479 1480
1547 1550 1555 1553 1545 1543 1546 1542 1541 1538 1535 1531 1527 1524 1520 1513 1511 1510 1508 1506 1504 1502 1500 1497 1496 1494 1492 1490 1489 1488 1487 1485 1484 1482 1480 1478 1477 1476 1476 1475 1475 1475 1475 1476
1553 1554 1553 1548 1544 1543 1548 1549 1542 1539 1536 1533 1531 1530 1523 1516 1513 1511 1510 1508 1506 1504 1502 1501 1499 1497 1495 1493 1492 1491 1489 1487 1485 1482 1480 1479 1477 1476 1475 1475 1474 1474 1474 1474
1555 1558 1559 1546 1545 1547 1548 1543 1541 1538 1535 1532 1529 1524 1520 1516 1513 1511 1510 1509 1507 1506 1505 1503 1502 1500 1498 1496 1495 1493 1492 1490 1487 1485 1483 1481 1480 1479 1478 1477 1476 1475 1475 1474
1552 1555 1548 1546 1545 1545 1543 1541 1539 1537 1534 1531 1527 1523 1520 1516 1513 1512 1511 1510 1509 1508 1507 1506 1504 1503 1500 1498 1497 1495 1494 1492 1490 1488 1486 1484 1483 1482 1481 1480 1478 1477 1476 1475
1548 1547 1546 1545 1544 1543 1542 1540 1538 1536 1533 1530 1527 1524 1520 1517 1514 1513 1512 1511 1510 1509 1508 1507 1506 1505 1503 1500 1498 1497 1495 1494 1492 1490 1488 1487 1485 1484 1483 1482 1480 1479 1477 1475
1546 1545 1545 1544 1543 1542 1541 1539 1537 1535 1532 1530 1527 1523 1520 1517 1515 1514 1513 1512 1511 1510 1509 1508 1507 1506 1504 1502 1500 1498 1497 1495 1494 1492 1490 1489 1488 1486 1485 1483 1481 1479 1477 1476
1545 1542 1543 1543 1542 1541 1539 1538 1536 1533 1531 1529 1526 1523 1520 1518 1516 1514 1513 1512 1512 1511 1510 1509 1508 1507 1505 1503 1501 1499 1498 1496 1495 1493 1492 1490 1489 1487 1486 1484 1482 1480 1478 1476
1537 1539 1540 1540 1540 1539 1538 1537 1535 1533 1531 1528 1525 1523 1520 1518 1516 1514 1513 1512 1511 1510 1509 1509 1508 1506 1505 1503 1501 1500 1498 1497 1495 1494 1492 1491 1489 1488 1487 1485 1483 1481 1479 1477
1535 1537 1538 1539 1539 1538 1537 1535 1534 1532 1530 1527 1525 1522 1520 1517 1516 1514 1512 1510 1509 1508 1508 1508 1507 1506 1505 1503 1501 1500 1498 1497 1496 1494 1493 1492 1490 1489 1488 1486 1485 1483 1481 1480
1533 1535 1536 1537 1537 1536 1535 1534 1532 1530 1528 1526 1523 1521 1518 1516 1514 1513 1511 1509 1508 1507 1506 1506 1505 1505 1504 1502 1501 1499 1498 1497 1496 1495 1494 1493 1492 1491 1490 1488 1486 1485 1484 1482
1531 1532 1534 1534 1535 1534 1533 1532 1530 1529 1527 1524 1522 1520 1517 1515 1514 1512 1510 1508 1506 1505 1504 1504 1503 1503 1502 1501 1500 1499 1498 1497 1497 1496 1495 1494 1493 1492 1491 1490 1489 1487 1486 1485
1527 1529 1531 1532 1533 1532 1532 1531 1529 1528 1526 1523 1521 1518 1516 1514 1512 1510 1509 1507 1506 1504 1503 1502 1501 1501 1501 1500 1500 1498 1498 1497 1497 1497 1496 1495 1495 1494 1493 1492 1491 1490 1489 1488
1524 1526 1528 1529 1530 1530 1530 1529 1528 1526 1524 1522 1520 1517 1515 1512 1510 1508 1507 1506 1505 1503 1502 1500 1500 1500 1500 1499 1499 1498 1497 1497 1497 1497 1497 1496 1496 1496 1495 1494 1493 1493 1492 1490
1521 1524 1525 1527 1527 1528 1528 1527 1526 1524 1523 1521 1518 1516 1514 1511 1509 1507 1506 1505 1503 1502 1501 1499 1498 1498 1499 1498 1498 1497 1497 1497 1497 1497 1497 1497 1497 1496 1496 1496 1495 1494 1493 1492
1519 1521 1523 1524 1525 1525 1525 1525 1524 1523 1521 1519 1517 1514 1512 1510 1508 1506 1504 1503 1502 1501 1500 1498 1497 1497 1498 1497 1497 1496 1496 1496 1497 1497 1497 1497 1497 1497 1497 1497 1496 1495 1495 1494
1515 1518 1520 1521 1522 1523 1523 1523 1522 1521 1519 1517 1515 1513 1511 1509 1506 1504 1502 1501 1500 1499 1498 1497 1496 1496 1496 1497 1496 1496 1496 1496 1496 1496 1497 1497 1497 1497 1497 1497 1497 1496 1495 1495
1512 1515 1517 1519 1520 1520 1520 1520 1519 1518 1517 1515 1513 1511 1509 1507 1505 1503 1501 1499 1498 1497 1496 1495 1495 1495 1495 1495 1495 1495 1495 1495 1495 1496 1496 1497 1497 1497 1497 1497 1497 1496 1495 1495
1508 1511 1514 1516 1517 1517 1517 1517 1516 1516 1514 1513 1511 1509 1507 1505 1503 1501 1498 1497 1495 1494 1494 1493 1493 1493 1493 1493 1494 1494 1494 1494 1495 1495 1496 1496 1497 1497 1497 1497 1496 1496 1495 1494
1504 1507 1510 1512 1514 1514 1514 1514 1513 1513 1512 1511 1509 1507 1505 1503 1501 1500 1497 1495 1493 1491 1490 1490 1490 1490 1491 1491 1492 1492 1493 1493 1494 1494 1495 1495 1496 1496 1496 1496 1496 1495 1495 1494
1500 1503 1506 1508 1509 1510 1510 1510 1510 1509 1509 1508 1507 1505 1504 1501 1499 1497 1495 1492 1490 1489 1488 1487 1487 1487 1488 1489 1490 1490 1491 1492 1492 1493 1494 1494 1495 1495 1495 1496 1495 1495 1494 1494
1496 1499 1501 1503 1505 1506 1506 1506 1506 1506 1505 1504 1504 1503 1501 1499 1498 1495 1493 1490 1488 1486 1485 1485 1484 1484 1485 1486 1487 1488 1489 1490 1491 1491 1492 1492 1493 1494 1494 1494 1494 1494 1494 1493
1492 1495 1497 1499 1500 1501 1502 1502 1502 1502 1501 1501 1500 1499 1498 1497 1495 1493 1491 1488 1486 1484 1483 1482 1482 1482 1482 1482 1483 1485 1486 1488 1489 1489 1490 1490 1491 1492 1492 1493 1493 1493 1493 1493